Showing default

CYGFM08, 41888

Orbit data source: Space-Track

CYGFM08, 41888 is an American payload satellite in LEO that was launched on Thu, 15 Dec 2016 UTC via a PEGASUS XL launch vehicle from the Pegasus Launch, Eastern Range Air Space (ERAS). Payload-class satellites include a variety of spacecraft equipped with specific instruments for various scientific and technological missions. These include communications satellites like Starlink; space stations such as the ISS; scientific satellites like the Hubble; Earth observation satellites from companies like Planet Labs, Umbra, and HawkEye 360; GPS; miniature CubeSats for education and research; and military/defense satellites.

Loading next visibility...
Identifier
41888, 2016-078E
Orbit
LEO
Country
Flag of USUS
Related business
Manufacturer
SST-US
Mission
Extended mission Civil Science
Bus & Motor
CYGNSS, Unknown motor
Mass
29 kg wet, 29 kg dry
Launch date (UTC)
2016-12-15 (9 years ago)
Launch vehicle
PEGASUS XL
Launch site
Pegasus Launch, Eastern Range Air Space (ERAS)
Object type
Payload
Rocket body
Debris
Shape & HBR
Half Hex Cyl + 2 Pan, 0.8 m
Radar Cross Section
0.450 m², Medium (>0.1 m² and < 1m²)

Expand to show TLE details & history
Last TLE update: 23 hours ago

TLE from 23 hours ago
0 CYGFM08
1 41888U 16078E   25242.02293826  .00020348  00000-0  43226-3 0  9995
2 41888  34.9476 355.5468 0010515 298.4442  61.5219 15.44018082483715
Epoch: 2025-08-30T00:33Z
TLE epoch observation values (Epoch: 2025-08-30T00:33:01.865Z)
Latitude
Longitude
8.82584°
Altitude
429.747 km
Speed
7.658 km/s
True Right ascension
23h 42m 11s
True Declination
0° 00' 00"
Sunlit
Object was in full shadow at epoch
Visualization orbit readout
Latitude
Unknown
Longitude
Unknown
Altitude
Unknown
Speed
Unknown
Apparent Right ascension
Unknown
Apparent Declination
Unknown
Sunlit
N/A
Visualization observer readout
Local Sidereal Time
15:36:34
Azimuth
Unknown
Elevation
Unknown
Doppler factor
Unknown
Orbital elements
Apogee altitude
444.72 km
Perigee altitude
430.386 km
Semi-major axis
6,815.69 km
Eccentricity
0.00105
Inclination
34.9476°
RAAN
355.5468°
Arg. of periapsis
298.4442°
True anomaly
61.62788°
Mean anomaly
61.5219°
Eccentric anomaly
61.57488°
Mean motion
3.85726 °/min
Orbital period
93.33 mins
BSTAR
0.00043226
Loading maneuver chart data...
Computing Atmospheric mass density...
Loading historical data...
Loading historical data...
Loading historical data...
Loading historical data...
Loading historical data...
Loading historical data...
Loading historical data...

Documentation

Showing up to 5 results
|